Flag for Australia Weather past 2 weeks in Launceston, Tasmania, Australia

Now
46 °F

Clear.


Feels Like: 44 °F
Forecast: 39 / 65 °F
Wind: 5 mph from North

Location: Launceston Airport

Current Time: Sep 22, 2014 at 1:13:42 AM

Latest Report: Sep 22, 2014 at 12:30 AM


Visibility: N/A

Pressure: 30.36 "Hg

Humidity: 87%

Dew point: 43 °F

Location of LauncestonLocation

Historic Weather in Launceston — Graph

°F

Launceston temperature yesterday

Maximum temperature yesterday: 66 °F (at 2:30 PM)
Minimum temperature yesterday: 37 °F (at 4:00 AM)
Average temperature yesterday: 53 °F

Past Weeks' High & Low Weather Summary

 TemperatureHumidityPressure
High66 °F (Sep 21, 2:30 PM)100% (Sep 8, 3:01 AM)30.45 "Hg (Sep 8, 3:01 AM)
Low32 °F (Sep 12, 4:00 AM)27% (Sep 14, 4:00 PM)29.50 "Hg (Sep 9, 4:00 PM)
Average49 °F72%29.99 "Hg
* Reported Midnight between Sep 6 and Sep 7 — Midnight between Sep 21 and Sep 22, Launceston, Weather by CustomWeather, © 2014

Note: Actual official high and low records may vary slightly from our data, if they occured in-between our weather recording intervals... More about our weather records

Advertising

Launceston weather history for previous 24 hours

 ConditionsComfort  
Time TempWeatherWind HumidityBarometerVisibility
12:00 AM
Sep 22
46 °FClear.5 mph87%30.36 "HgN/A
11:30 PM
Sep 21
48 °FClear.No wind87%30.36 "HgN/A
11:00 PM46 °FClear.No wind87%30.36 "HgN/A
10:30 PM48 °FClear.5 mph82%30.36 "HgN/A
10:00 PM48 °FClear.6 mph82%30.36 "HgN/A
9:30 PM46 °FClear.7 mph82%30.36 "HgN/A
9:00 PM45 °FClear.9 mph81%30.36 "HgN/A
8:30 PM46 °FClear.9 mph82%30.36 "HgN/A
8:00 PM46 °FClear.10 mph82%30.36 "HgN/A
7:00 PM48 °FClear.8 mph82%30.33 "HgN/A
6:30 PM55 °FClear.7 mph67%30.33 "HgN/A
6:00 PM59 °FClear.1 mph51%30.30 "HgN/A
5:30 PM59 °FClear.No wind55%30.30 "HgN/A
5:00 PM63 °FSunny.No wind45%30.30 "HgN/A
4:30 PM64 °FSunny.No wind40%30.30 "HgN/A
4:00 PM64 °FSunny.1 mph40%30.30 "HgN/A
3:30 PM64 °FSunny.1 mph43%30.30 "HgN/A
3:00 PM64 °FSunny.3 mph40%30.30 "HgN/A
2:30 PM66 °FSunny.No wind40%30.30 "HgN/A
2:00 PM64 °FSunny.5 mph46%30.30 "HgN/A
1:00 PM63 °FSunny.2 mph42%30.30 "HgN/A
12:30 PM61 °FSunny.3 mph48%30.30 "HgN/A
12:00 PM61 °FSunny.5 mph45%30.33 "HgN/A
11:30 AM61 °FSunny.5 mph48%30.33 "HgN/A
11:00 AM59 °FSunny.5 mph48%30.33 "HgN/A
10:30 AM57 °FSunny.6 mph59%30.36 "HgN/A
10:00 AM54 °FSunny.7 mph67%30.36 "HgN/A
9:30 AM52 °FSunny.6 mph67%30.36 "HgN/A
9:00 AM48 °FSunny.6 mph76%30.36 "HgN/A
8:00 AM45 °FSunny.7 mph81%30.33 "HgN/A
7:00 AM41 °FSunny.No wind81%30.33 "HgN/A
6:00 AM39 °FSunny.No wind81%30.30 "HgN/A
5:30 AM39 °FSunny.No wind81%30.30 "HgN/A
5:00 AM39 °FClear.No wind81%30.30 "HgN/A
4:30 AM37 °FClear.No wind87%30.30 "HgN/A
4:00 AM37 °FClear.5 mph87%30.30 "HgN/A
Weather by CustomWeather, © 2014

See weather overviewHow to use our weather pages